{"data":{"norad_id":65243,"intl_designator":"2025-179J","name":"STARLINK-34982","alt_names":[],"object_type":"PAYLOAD","status":"ACTIVE","operator":null,"country":"US","launch_date":"2025-08-18","launch_site_code":"AFWTR","launch_vehicle":null,"mission":null,"orbit_class":"UNKNOWN","rcs_meters":null,"size_class":null,"mass_kg":null,"dimensions":null,"purposes":["comms"],"wikipedia_slug":null,"has_3d_model":false,"image_url":null,"decayed_at":null,"tle_current":{"epoch":"2026-05-25T02:29:19.916736Z","epoch_age_seconds":62006,"freshness":"FRESH","line1":"1 65243U 25179J   26145.10370274  .00003789  00000+0  26643-3 0  9996","line2":"2 65243  97.4468 187.8774 0002661 159.1038 201.0299 15.05658281 43476","mean_motion":15.05658281,"eccentricity":0.0002661,"inclination_deg":97.4468,"raan_deg":187.8774,"arg_perigee_deg":159.1038,"mean_anomaly_deg":201.0299,"bstar":0.00026643,"rev_number":4347,"period_min":95.639230904612,"perigee_km":547.64231259445,"apogee_km":551.3291934236,"semimajor_km":6927.622753009,"source":"CELESTRAK","updated_at":"2026-05-25T13:38:20.725531Z"}}}